Regional Weather Roundup
Issued by NWS

Home | Current Version | Previous Version | Text Only | Print | Product List | Glossary On
Versions: 1 2 3 4 5 6 7 8 9 10 11 12 13 14 15 16 17 18 19 20 21 22 23 24 25 26 27 28 29 30 31 32 33 34 35 36 37 38 39 40 41 42 43 44 45 46 47 48 49 50
000
ASUS43 KMKX 260800
RWRWI

WISCONSIN REGIONAL WEATHER ROUNDUP
NATIONAL WEATHER SERVICE MILWAUKEE/SULLIVAN WI
300 AM CDT FRI AUG 26 2016

NOTE: "FAIR" INDICATES FEW OR NO CLOUDS BELOW 12,000 FEET WITH NO
SIGNIFICANT WEATHER AND/OR OBSTRUCTIONS TO VISIBILITY.

WIZ001-002-006>008-014>016-023>028-260900-
NORTHWEST WISCONSIN

CITY           SKY/WX    TMP DP  RH WIND       PRES   REMARKS
SUPERIOR ARPT  FAIR      56  54  92 W5        30.09S
ASHLAND        CLOUDY    57  55  93 SW7       30.08S
HAYWARD        FAIR      56  53  90 CALM      30.11S
SIREN          FAIR      56  55  94 W6        30.13R
CUMBERLAND     FAIR      54  52  94 NW5       30.13R
RICE LAKE      FAIR      54  52  93 CALM      30.14R
CHETEK         NOT AVBL
LADYSMITH      FAIR      55  53  92 SW3       30.12F
EAU CLAIRE     NOT AVBL
MENOMONIE      FAIR      58  55  89 W5        30.13S
NEW RICHMOND   FAIR      53  53  98 W3        30.14S
OSCEOLA        FAIR      53  53 100 CALM      30.17R
$$

WIZ003>005-009-010-017-018-260900-
NORTH CENTRAL WISCONSIN

CITY           SKY/WX    TMP DP  RH WIND       PRES   REMARKS
MANITOWISH WTR NOT AVBL
ARBOR VITAE    MOCLDY    57  55  92 CALM      30.09F
WOODRUFF       MOCLDY    57  55  92 CALM      30.09F
RHINELANDER    FAIR      53  53 100 W6        30.10S
EAGLE RIVER    FAIR      52  52 100 CALM      30.09R
LAND O LAKES   FAIR      54  53  94 W3        30.09R
PHILLIPS       FAIR      54  53  97 CALM      30.10S
TOMAHAWK       FAIR      49  48  97 W3        30.11S
MEDFORD        FAIR      53  53 100 W5        30.11S
MERRILL        FAIR      55  54  96 W6        30.11S
$$

WIZ029-030-035-036-043>047-260900-
CENTRAL WISCONSIN

CITY           SKY/WX    TMP DP  RH WIND       PRES   REMARKS
WAUSAU         FAIR      57  53  86 NW9       30.09S
MOSINEE        FAIR      54  54 100 W5        30.12R
MARSHFIELD     FAIR      55  52  89 CALM      30.11S
STEVENS POINT  FAIR      58  54  85 W3        30.13R
WAUPACA        FAIR      61  58  90 W5        30.11R
WAUTOMA        FAIR      57  55  93 CALM      30.12R
WISC RAPIDS    FAIR      57  56  96 W3        30.13S
CAMP DOUGLAS   FAIR      54  54 100 NW3       30.12S FOG
$$

WIZ011>013-019>022-031-037>040-048>050-260900-
NORTHEAST WISCONSIN

CITY           SKY/WX    TMP DP  RH WIND       PRES   REMARKS
ANTIGO         FAIR      54  53  97 W5        30.10S
SHAWANO        FAIR      60  55  84 W5        30.10R
OCONTO         NOT AVBL
STURGEON BAY   FAIR      64  56  75 W7        30.07R
GREEN BAY      FAIR      58  58 100 W6        30.09R
MANITOWOC      NOT AVBL
APPLETON       FAIR      57  54  88 W7        30.08R
CLINTONVILLE   FAIR      57  54  88 W3        30.10R
OSHKOSH        FAIR      60  55  83 W3        30.10R
$$

WIZ032>034-041-042-053>061-260900-
SOUTHWEST WISCONSIN

CITY           SKY/WX    TMP DP  RH WIND       PRES   REMARKS
LA CROSSE      FAIR      62  60  93 SE3       30.13R
SPARTA         FAIR      54  54 100 CALM      30.13S
VIROQUA        FAIR      57  56  98 CALM      30.14S
BOSCOBEL       FAIR      59  58  96 SW3       30.13S FOG
PRAIRIE DU CHI FAIR      60  58  93 CALM      30.13R
PLATTEVILLE    FAIR      61  61 100 CALM      30.14S
$$

WIZ056-057-062-063-064-067-068-260900-
SOUTH CENTRAL WISCONSIN

CITY           SKY/WX    TMP DP  RH WIND       PRES   REMARKS
REEDSBURG      NOT AVBL
BARABOO/DELLS  FAIR      58  56  91 CALM      30.13R
LONE ROCK      FOG       57  57 100 CALM      30.14R VSB 1/2
MINERAL POINT  FAIR      63  61  94 CALM      30.14R
MADISON        FAIR      61  60  97 CALM      30.12R
MIDDLETON      FAIR      60  60 100 CALM      30.13R
WATERTOWN      FAIR      60  60 100 CALM      30.11R
MONROE         FAIR      63  61  94 NW8       30.13R
JANESVILLE     FAIR      63  63 100 CALM      30.12R FOG
$$

WIZ051-052-058>065-066-070>072-260900-
SOUTHEAST WISCONSIN

CITY           SKY/WX    TMP DP  RH WIND       PRES   REMARKS
MILWAUKEE      FAIR      70  61  73 W6        30.11R
WAUKESHA       FAIR      63  59  88 W6        30.12R
MILWAUKEE/TIMM FAIR      63  57  82 NW3       30.11R
RACINE         FAIR      65  61  87 W3        30.12R
BURLINGTON     FAIR      60  59  97 CALM      30.12R
KENOSHA        FAIR      63  60  90 W6        30.11S
FOND DU LAC    FAIR      61  57  87 W5        30.11R
SHEBOYGAN      FAIR      57  55  93 CALM      30.10R
WEST BEND      FAIR      63  59  88 CALM      30.10S
JUNEAU         FAIR      59  59  97 CALM      30.12S
$$

LSZ147-162-260900-
LAKE SUPERIOR

STATION/POSITION TIME  TEMP    WIND        PRES    WAVE
                       AIR SEA DIR/SP/G            HT/PER
                 (UTC) (F)     (DEG/KT/KT) (MB)    (FT/S)
W MID LAKE BUOY  0650   65 67  280/ 14/ 16 1015.8R   3/ 5
DEVILS ISLAND    0700   63     260/ 13/ 15 1017.8R
PORT WING        0700   64     270/ 10/ 14 1018.6R
SAXON HARBOR     0700   60     200/  6/  9 1017.9R
$$

LMZ867-665-643>646-260900-
LAKE MICHIGAN

STATION/POSITION TIME  TEMP    WIND        PRES    WAVE
                       AIR SEA DIR/SP/G            HT/PER
                 (UTC) (F)     (DEG/KT/KT) (MB)    (FT/S)
CHAMBERS ISLAND  0700   65     270/  3/  8 1017.3R
N MID LAKE BUOY  0650   68 70  290/ 10/ 12 1016.1R   2/ 3
NORTHPORT PIER   0700   67     280/  4/  9 1016.9S
SISTER BAY       0722   67     310/ 16/ 18   N/A
KEWAUNEE LAKESHO 0700   63     300/  4/  7 1017.4R
SHEBOYGAN LAKESH 0700   67     250/  3/  4 1018.2R
PORT WASHINGTON  0740   66     260/  3/  4 1019.6S
ATWATER BUOY     0700   63 56  310/  6/  6   N/A
MILWAUKEE LAKESH 0710   70     290/  7/  9   N/A
S MID LAKE BUOY  0650   74 74  310/ 14/ 16 1018.0R   1/ 3
KENOSHA   LAKESH 0700   69     280/  6/  9 1019.0R
$$

TC  - TEMPERATURE IN CELSIUS
VSB - VISIBILITY IN STATUTE MILES
WCI - WIND CHILL INDEX
HX  - HEAT INDEX





USA.gov is the U.S. government's official web portal to all federal, state and local government web resources and services.